Wind_Speed
16 16 15 14 14 13 13 13 12 11 10 9 8 8 8 7 6 6 6 5 5 5 4 4 4 3 3 3 3 3 3 2 2 2 2 3 3 3 4 4 5 5 5
18 17 17 16 15 15 15 14 13 12 12 11 10 9 9 8 8 7 7 6 6 6 5 5 5 4 4 4 4 4 4 4 3 3 3 3 3 4 4 4 4 4 4
19 19 18 17 17 16 16 16 15 14 13 13 12 11 10 10 9 9 8 8 7 7 7 6 6 6 5 5 5 6 5 5 4 4 4 4 4 4 4 4 4 4 5
21 20 19 19 18 18 17 17 17 16 15 14 14 13 12 11 10 10 10 9 9 8 8 7 7 7 6 6 6 7 7 6 6 6 6 5 6 5 5 5 5 5 6
23 22 21 20 20 20 19 19 18 18 17 16 15 14 14 13 12 11 10 10 10 9 9 9 9 8 8 8 7 7 7 7 7 7 7 7 7 7 6 6 6 7 7
24 24 24 23 22 21 20 20 20 19 19 18 17 16 15 14 13 13 12 11 11 10 10 10 10 9 9 9 8 8 8 8 8 8 8 8 8 7 7 8 8 8 8
27 26 26 26 25 24 23 22 21 21 20 19 19 18 16 16 15 14 14 13 12 12 12 11 11 10 10 9 9 10 9 9 9 9 9 9 9 9 9 9 9 9 9
29 29 28 28 27 26 25 24 23 22 21 21 20 19 18 17 16 16 15 14 14 14 14 13 13 12 12 12 12 11 11 11 10 11 11 11 10 10 10 10 10 10 10
31 30 30 29 28 28 27 26 25 23 23 22 22 21 20 19 18 18 17 16 16 15 15 15 15 14 14 14 13 13 12 12 12 12 12 12 11 11 11 11 11 11 11
32 32 31 31 30 29 29 28 27 26 25 24 24 23 22 21 20 19 19 18 18 17 17 17 17 16 16 16 15 15 14 13 13 13 12 12 12 12 12 12 12 12 12
34 34 33 33 32 31 30 29 29 28 27 26 25 25 24 23 23 22 21 20 20 19 19 19 18 18 17 17 17 16 16 15 14 14 13 13 14 14 13 13 13 13 13
36 35 35 35 34 33 33 32 31 30 29 28 27 26 26 25 25 24 23 22 21 21 20 20 19 18 18 18 18 17 17 16 16 15 15 15 15 15 15 15 15 15 15
37 37 36 36 35 35 35 34 33 32 31 31 30 29 28 27 26 25 25 24 23 23 22 22 20 20 19 19 19 18 18 18 18 17 16 16 16 16 16 16 17 16 17
38 38 38 37 37 36 36 36 35 34 34 33 31 30 30 29 28 28 27 26 25 25 25 24 23 22 21 21 21 20 20 19 19 19 18 18 18 18 18 18 18 18 18
39 39 39 39 38 38 37 37 37 36 36 35 34 32 32 31 30 30 29 29 28 27 26 26 25 24 23 23 22 22 21 21 21 21 20 20 20 20 20 20 20 20 19
40 40 40 40 39 39 38 38 38 38 37 36 35 35 34 33 32 32 31 30 30 29 28 27 27 26 25 25 24 24 23 23 23 22 22 22 22 22 22 21 21 20 20
42 42 41 41 41 40 40 39 39 39 39 38 37 37 36 35 34 34 32 32 31 31 30 30 29 28 27 26 26 25 25 25 25 24 24 24 24 23 23 22 22 21 21
43 43 42 42 42 42 41 40 39 39 40 39 39 39 38 37 36 35 35 33 33 33 32 32 31 30 29 28 28 27 27 26 26 26 26 25 25 24 24 24 23 22 22
44 43 43 44 43 43 42 42 41 40 41 41 39 39 39 39 40 38 37 36 36 35 34 34 33 32 31 30 30 30 29 28 28 28 28 27 26 25 25 25 25 24 23
46 45 44 43 43 43 44 43 43 42 42 42 42 40 41 41 41 40 39 39 38 37 36 36 35 34 33 33 32 31 31 31 30 29 29 28 28 27 26 26 26 25 25
46 46 45 44 43 44 45 44 43 43 43 43 43 42 42 43 43 41 41 39 38 38 38 38 37 36 35 34 33 32 32 32 32 31 30 29 28 28 28 27 27 26 26
46 47 47 46 45 44 44 45 44 44 44 44 45 45 45 43 43 42 42 40 39 38 38 38 38 38 36 36 35 34 33 32 32 32 31 30 29 29 29 28 28 27 27
45 47 46 47 46 46 46 45 45 45 44 43 44 44 45 45 44 43 43 42 41 39 38 38 39 39 38 37 37 36 35 34 33 32 31 30 29 30 30 29 28 28 28
46 47 47 47 47 47 47 47 46 46 45 45 44 43 44 45 44 43 44 44 43 42 42 40 40 40 39 38 37 37 37 35 35 33 32 31 31 31 30 30 30 29 29
46 48 47 47 47 47 46 47 46 46 47 46 46 45 45 44 44 44 43 44 45 44 44 43 41 41 41 40 38 38 37 36 35 34 34 33 32 32 31 31 31 31 31
46 47 48 48 48 47 47 47 47 47 48 47 47 47 46 46 45 45 44 44 44 45 45 44 43 42 42 41 41 40 38 37 36 36 35 34 34 33 33 32 32 32 32
Wind_Direction
230 228 227 228 229 228 227 225 222 220 219 219 220 220 221 221 223 224 226 232 234 234 239 241 242 246 254 258 260 266 280 301 314 321 327 331 338 343 349 351 351 357 360
231 231 230 229 230 231 230 228 226 225 224 224 227 227 226 226 225 227 232 234 237 238 241 246 246 251 256 259 263 266 272 282 292 300 308 313 322 329 334 341 342 345 346
233 232 232 231 231 231 231 231 230 228 228 228 228 228 230 231 232 233 237 239 242 242 242 245 250 254 259 261 264 264 267 271 279 287 292 297 307 315 318 323 328 329 329
235 234 233 232 231 232 232 232 232 231 229 229 228 228 229 232 236 239 239 239 241 242 243 245 250 256 259 263 267 267 265 266 272 277 283 289 295 301 306 309 311 314 317
236 235 235 234 233 234 233 233 234 232 231 231 230 230 232 233 234 239 240 237 237 241 244 246 251 258 260 263 267 270 270 269 270 271 275 283 289 294 297 301 304 306 308
238 236 236 235 235 235 235 234 234 233 232 233 233 232 234 234 235 238 238 235 237 242 246 248 251 257 261 261 262 265 268 268 268 271 274 282 289 290 293 295 298 300 301
239 237 237 237 236 236 235 234 235 235 233 233 233 233 234 236 237 238 238 240 241 243 245 247 249 254 257 260 265 265 265 267 267 269 274 280 285 286 287 290 292 297 298
239 238 237 237 237 236 236 235 234 235 234 233 234 233 234 236 237 239 240 242 245 246 246 248 251 253 256 260 263 265 266 265 268 270 272 277 280 283 284 286 290 293 295
238 238 237 237 237 236 236 236 235 235 235 235 235 235 235 237 238 240 242 244 246 248 249 249 251 254 257 261 262 264 266 266 267 270 273 275 277 279 282 285 288 289 290
238 238 237 236 236 236 236 236 237 236 236 236 237 237 237 238 240 241 243 245 247 250 252 252 252 255 257 259 261 263 263 265 266 270 273 275 277 278 281 284 285 285 288
238 238 237 237 236 236 236 236 237 237 237 237 237 238 238 240 241 242 245 247 248 249 252 253 255 256 257 258 260 260 260 262 265 268 272 274 276 278 279 281 282 284 286
239 238 238 237 237 236 236 236 237 238 239 239 238 239 240 241 242 243 245 247 248 249 251 254 257 257 257 258 259 258 258 260 264 267 269 273 275 277 278 278 279 282 284
239 239 239 238 238 237 237 236 237 239 239 239 240 240 240 241 243 244 246 247 248 249 251 254 255 257 256 257 257 258 259 260 264 267 269 271 273 275 277 279 280 282 284
240 240 240 240 240 238 237 237 237 238 239 239 240 241 242 242 243 244 246 247 248 249 250 252 254 257 256 257 256 257 259 261 263 265 267 269 272 274 277 280 282 283 285
240 240 241 240 240 240 239 239 239 239 240 240 240 241 241 242 243 244 245 246 248 249 251 252 253 255 257 258 258 257 257 260 262 264 266 268 270 273 276 279 281 282 282
240 240 241 241 240 239 239 239 239 239 240 240 240 240 241 242 244 244 245 245 247 248 250 252 252 254 256 257 258 258 258 258 260 263 265 266 268 271 274 276 279 281 281
239 240 241 240 239 239 238 239 239 239 240 241 241 241 242 242 243 243 244 245 246 248 249 250 251 253 254 256 257 258 259 259 260 262 265 266 268 269 272 275 277 279 281
239 239 240 240 239 239 238 238 240 239 239 240 240 241 242 242 242 243 245 246 247 248 249 251 251 252 253 254 256 257 258 260 262 262 264 266 267 268 270 272 274 276 279
238 238 239 240 239 239 239 238 240 240 239 240 241 241 242 243 243 244 245 247 248 249 249 250 250 251 252 253 256 257 259 260 262 263 263 264 265 267 268 269 272 274 275
237 237 238 238 239 238 239 239 239 240 241 241 241 242 243 243 244 245 246 247 248 248 249 249 250 250 251 252 254 256 258 260 263 263 263 263 264 265 266 269 271 272 274
237 237 238 238 238 239 239 239 240 242 242 241 241 241 242 243 244 245 246 245 246 247 247 247 249 250 251 252 253 255 258 259 261 261 262 263 264 264 266 268 270 271 273
237 237 237 238 237 239 239 240 241 241 242 243 242 242 242 243 244 244 245 245 244 245 246 248 249 250 250 251 253 255 256 257 258 260 261 261 263 264 265 268 268 270 272
236 236 236 237 238 239 240 241 242 242 241 242 242 242 243 243 243 244 244 244 244 244 245 247 249 249 250 251 253 254 255 257 258 258 258 260 261 262 264 266 268 269 271
236 236 236 237 238 239 240 241 241 242 242 243 244 244 244 244 244 245 245 244 244 244 246 247 248 250 249 251 254 254 255 256 257 257 258 258 259 261 262 264 267 269 270
237 236 236 237 238 239 240 240 241 241 241 242 243 244 245 245 245 245 246 246 246 246 246 246 247 248 250 252 253 254 253 254 256 257 258 258 260 261 262 263 266 268 270
237 236 236 237 238 240 240 241 241 242 242 242 243 244 245 246 245 245 245 246 247 246 245 246 246 248 250 252 253 253 253 254 256 257 258 259 260 261 261 263 266 268 270
Height
5836 5837 5839 5840 5842 5844 5845 5846 5848 5849 5850 5852 5853 5854 5855 5856 5857 5858 5860 5861 5862 5863 5863 5864 5865 5865 5866 5866 5867 5867 5868 5868 5868 5868 5868 5868 5868 5868 5868 5868 5868 5867 5867
5833 5835 5836 5838 5840 5842 5843 5845 5846 5847 5849 5850 5851 5853 5854 5855 5856 5857 5858 5859 5860 5862 5862 5863 5864 5864 5865 5866 5866 5867 5867 5867 5868 5868 5868 5868 5868 5868 5868 5867 5867 5867 5866
5830 5832 5834 5835 5837 5839 5841 5842 5844 5845 5847 5848 5849 5851 5852 5854 5855 5856 5857 5858 5859 5860 5861 5862 5863 5864 5864 5865 5865 5866 5866 5867 5867 5867 5867 5868 5868 5867 5867 5867 5867 5866 5866
5827 5829 5830 5832 5834 5836 5838 5840 5841 5843 5844 5846 5847 5849 5850 5852 5853 5854 5856 5857 5858 5859 5860 5861 5862 5863 5863 5864 5864 5865 5865 5865 5866 5866 5866 5867 5867 5867 5866 5866 5866 5866 5865
5823 5825 5827 5829 5831 5833 5835 5836 5838 5840 5842 5843 5845 5846 5848 5849 5851 5852 5854 5855 5856 5857 5858 5860 5860 5861 5862 5862 5863 5863 5864 5864 5864 5865 5865 5866 5866 5866 5865 5865 5865 5865 5864
5819 5821 5823 5825 5827 5829 5831 5833 5835 5836 5838 5840 5842 5844 5845 5847 5849 5850 5852 5853 5854 5855 5856 5858 5858 5859 5860 5861 5861 5862 5862 5863 5863 5863 5864 5864 5864 5864 5864 5864 5864 5863 5863
5814 5816 5818 5820 5823 5825 5827 5829 5831 5833 5835 5837 5839 5841 5842 5844 5846 5847 5849 5850 5852 5853 5854 5855 5856 5857 5858 5859 5859 5860 5860 5861 5861 5862 5862 5863 5863 5863 5863 5863 5862 5862 5862
5808 5810 5813 5816 5818 5820 5822 5824 5827 5829 5831 5833 5835 5837 5839 5841 5843 5845 5846 5848 5849 5850 5852 5853 5854 5855 5856 5857 5857 5858 5858 5859 5859 5860 5860 5861 5861 5861 5861 5861 5861 5860 5860
5802 5805 5807 5810 5813 5815 5818 5820 5822 5824 5827 5829 5831 5833 5836 5838 5839 5841 5843 5845 5846 5848 5849 5850 5851 5852 5853 5854 5855 5855 5856 5857 5857 5858 5858 5858 5858 5858 5859 5859 5859 5858 5858
5796 5798 5801 5804 5807 5810 5812 5815 5817 5820 5822 5824 5827 5829 5832 5834 5835 5838 5839 5841 5843 5844 5846 5847 5848 5849 5850 5851 5852 5853 5853 5854 5855 5855 5856 5856 5856 5856 5856 5856 5856 5856 5856
5789 5792 5795 5798 5801 5804 5807 5810 5812 5815 5817 5819 5822 5824 5827 5829 5831 5833 5835 5837 5839 5840 5842 5843 5844 5846 5847 5848 5849 5850 5850 5851 5852 5852 5853 5853 5853 5853 5853 5854 5854 5853 5853
5782 5785 5788 5791 5794 5797 5800 5803 5806 5809 5812 5814 5817 5819 5821 5824 5826 5829 5831 5833 5834 5836 5838 5839 5841 5842 5843 5844 5845 5846 5847 5848 5848 5849 5849 5850 5850 5850 5850 5850 5851 5850 5850
5774 5778 5781 5784 5787 5790 5794 5797 5800 5803 5806 5808 5811 5813 5816 5819 5821 5823 5826 5828 5830 5832 5833 5835 5836 5838 5839 5840 5841 5842 5843 5844 5845 5845 5846 5846 5847 5847 5847 5847 5847 5847 5847
5766 5769 5773 5776 5779 5783 5786 5790 5793 5796 5799 5802 5805 5807 5810 5813 5815 5818 5820 5822 5824 5826 5828 5830 5831 5833 5834 5836 5837 5838 5839 5840 5841 5841 5842 5843 5843 5843 5843 5843 5843 5843 5843
5757 5760 5764 5768 5771 5775 5778 5782 5785 5789 5792 5795 5798 5801 5803 5806 5809 5812 5814 5817 5819 5821 5823 5825 5826 5828 5829 5831 5832 5833 5835 5835 5836 5837 5838 5838 5839 5839 5839 5839 5839 5839 5839
5747 5751 5755 5759 5763 5766 5770 5774 5777 5781 5784 5787 5790 5793 5796 5799 5802 5805 5808 5810 5813 5815 5817 5819 5821 5822 5824 5825 5827 5828 5829 5830 5831 5832 5833 5834 5834 5835 5835 5835 5835 5835 5834
5738 5742 5746 5750 5754 5758 5761 5765 5768 5772 5776 5779 5782 5786 5789 5792 5795 5798 5801 5803 5806 5808 5811 5812 5814 5816 5818 5820 5821 5823 5824 5825 5826 5827 5828 5829 5829 5829 5830 5830 5830 5830 5830
5728 5732 5736 5740 5744 5748 5752 5756 5759 5763 5767 5770 5773 5777 5781 5784 5787 5790 5793 5796 5799 5801 5803 5806 5808 5810 5812 5814 5815 5817 5818 5819 5820 5821 5822 5823 5823 5824 5824 5825 5825 5825 5825
5718 5723 5727 5731 5735 5739 5743 5747 5751 5754 5758 5761 5764 5768 5772 5775 5779 5782 5785 5788 5791 5794 5796 5798 5800 5803 5805 5807 5808 5810 5811 5813 5813 5815 5816 5817 5817 5818 5818 5819 5819 5819 5819
5707 5712 5717 5721 5726 5730 5734 5738 5742 5745 5749 5752 5755 5758 5763 5766 5769 5773 5776 5780 5782 5785 5788 5790 5793 5795 5797 5799 5801 5803 5804 5806 5807 5808 5809 5810 5811 5812 5812 5813 5813 5814 5814
5697 5702 5707 5712 5716 5720 5724 5728 5732 5736 5739 5743 5746 5749 5752 5756 5760 5764 5767 5770 5773 5776 5779 5782 5784 5787 5789 5791 5793 5795 5797 5798 5800 5801 5802 5803 5804 5805 5806 5806 5807 5807 5808
5686 5691 5697 5702 5706 5711 5715 5719 5723 5726 5730 5734 5737 5740 5743 5746 5750 5754 5758 5761 5764 5767 5770 5773 5775 5778 5781 5783 5785 5787 5789 5792 5792 5794 5795 5796 5797 5798 5799 5800 5800 5801 5801
5676 5681 5686 5691 5696 5701 5705 5708 5712 5716 5720 5724 5727 5730 5733 5736 5740 5744 5748 5751 5754 5757 5760 5763 5766 5769 5772 5774 5776 5779 5781 5783 5784 5786 5787 5789 5790 5791 5792 5793 5793 5794 5794
5666 5671 5675 5681 5685 5690 5694 5698 5702 5706 5710 5714 5717 5720 5723 5727 5730 5733 5737 5741 5744 5748 5751 5753 5756 5759 5762 5765 5767 5770 5772 5774 5776 5778 5780 5781 5782 5784 5784 5785 5786 5786 5787
5655 5660 5665 5670 5674 5678 5682 5687 5691 5695 5699 5703 5706 5710 5713 5716 5720 5723 5726 5730 5734 5738 5741 5744 5747 5750 5752 5755 5758 5760 5763 5765 5767 5769 5771 5773 5774 5775 5776 5777 5778 5779 5779
5644 5649 5654 5659 5664 5668 5672 5676 5681 5685 5689 5692 5696 5699 5703 5706 5710 5713 5716 5720 5723 5727 5731 5734 5737 5740 5743 5746 5749 5751 5754 5756 5758 5760 5762 5764 5765 5767 5768 5769 5770 5771 5771